When you browse on this site, cookies collect data to enhance your experience and personalize the content and advertising you see.
Visit our Privacy Policy to learn more. By continuing to use the site, you agree to this use of cookies and data.
  • In Lithuania
  • List of Countries
  • For 7 days
  • Water Temperature
  • Weather Map
  • Weather Widgets
  • user-avatar
    Login

    Hourly Weather Lankaran

    Today, 19 August, Monday

    Time Temperature Precipitation Wind Pressure Humidity
    00:00 +15°C° 0 mm 0 mps 633 mmHg 30%
    01:00 +16°C° 0 mm 1 mps 633 mmHg 30%
    02:00 +16°C° 0 mm 1 mps 633 mmHg 29%
    03:00 +16°C° 0 mm 1 mps 633 mmHg 29%
    04:00 +16°C° 0 mm 1 mps 634 mmHg 29%
    05:00 +18°C° 0 mm 1 mps 634 mmHg 29%
    06:00 +18°C° 0 mm 1 mps 635 mmHg 29%
    07:00 +21°C° 0 mm 1 mps 636 mmHg 26%
    08:00 +23°C° 0 mm 2 mps 637 mmHg 23%
    09:00 +26°C° 0 mm 2 mps 638 mmHg 20%
    10:00 +27°C° 0 mm 3 mps 638 mmHg 20%
    11:00 +28°C° 0 mm 4 mps 638 mmHg 19%
    12:00 +29°C° 0 mm 4 mps 638 mmHg 19%
    13:00 +28°C° 0 mm 4 mps 638 mmHg 20%
    14:00 +28°C° 0 mm 4 mps 638 mmHg 20%
    15:00 +28°C° 0 mm 4 mps 638 mmHg 21%
    16:00 +26°C° 0 mm 3 mps 637 mmHg 26%
    17:00 +24°C° 0 mm 3 mps 636 mmHg 30%
    18:00 +21°C° 0 mm 2 mps 636 mmHg 35%
    19:00 +20°C° 0 mm 2 mps 636 mmHg 34%
    20:00 +19°C° 0 mm 1 mps 636 mmHg 34%
    21:00 +18°C° 0 mm 1 mps 635 mmHg 34%
    22:00 +16°C° 0 mm 1 mps 635 mmHg 31%
    23:00 +16°C° 0 mm 1 mps 635 mmHg 29%

    Tomorrow, 20 August, Tuesday

    Time Temperature Precipitation Wind Pressure Humidity
    00:00 +16°C° 0 mm 1 mps 635 mmHg 27%
    01:00 +15°C° 0 mm 1 mps 635 mmHg 27%
    02:00 +15°C° 0 mm 1 mps 635 mmHg 27%
    03:00 +15°C° 0 mm 1 mps 635 mmHg 26%
    04:00 +15°C° 0 mm 1 mps 635 mmHg 25%
    05:00 +16°C° 0 mm 1 mps 636 mmHg 24%
    06:00 +18°C° 0 mm 1 mps 636 mmHg 23%
    07:00 +20°C° 0 mm 1 mps 637 mmHg 19%
    08:00 +23°C° 0 mm 2 mps 638 mmHg 16%
    09:00 +26°C° 0 mm 2 mps 639 mmHg 12%
    10:00 +27°C° 0 mm 3 mps 639 mmHg 12%
    11:00 +28°C° 0 mm 3 mps 639 mmHg 12%
    12:00 +29°C° 0 mm 4 mps 640 mmHg 12%
    13:00 +29°C° 0 mm 4 mps 639 mmHg 13%
    14:00 +29°C° 0 mm 4 mps 639 mmHg 14%
    15:00 +28°C° 0 mm 4 mps 638 mmHg 15%
    16:00 +26°C° 0 mm 3 mps 638 mmHg 19%
    17:00 +24°C° 0 mm 3 mps 637 mmHg 23%
    18:00 +21°C° 0 mm 2 mps 636 mmHg 27%
    19:00 +20°C° 0 mm 2 mps 636 mmHg 27%
    20:00 +19°C° 0 mm 1 mps 636 mmHg 27%
    21:00 +16°C° 0 mm 1 mps 635 mmHg 27%
    22:00 +16°C° 0 mm 1 mps 635 mmHg 26%
    23:00 +16°C° 0 mm 1 mps 635 mmHg 25%

    Day after tomorrow, 21 August, Wednesday

    Time Temperature Precipitation Wind Pressure Humidity
    00:00 +15°C° 0 mm 1 mps 635 mmHg 24%
    01:00 +15°C° 0 mm 1 mps 635 mmHg 24%
    02:00 +15°C° 0 mm 1 mps 635 mmHg 25%
    03:00 +14°C° 0 mm 1 mps 635 mmHg 25%
    04:00 +15°C° 0 mm 1 mps 635 mmHg 25%
    05:00 +16°C° 0 mm 1 mps 635 mmHg 24%
    06:00 +16°C° 0 mm 1 mps 636 mmHg 24%
    07:00 +20°C° 0 mm 1 mps 637 mmHg 21%
    08:00 +23°C° 0 mm 2 mps 638 mmHg 19%
    09:00 +26°C° 0 mm 2 mps 639 mmHg 16%
    10:00 +26°C° 0 mm 3 mps 639 mmHg 16%
    11:00 +27°C° 0 mm 3 mps 638 mmHg 16%
    12:00 +28°C° 0 mm 4 mps 638 mmHg 15%
    13:00 +28°C° 0 mm 4 mps 638 mmHg 17%
    14:00 +28°C° 0 mm 4 mps 637 mmHg 18%
    15:00 +28°C° 0 mm 4 mps 637 mmHg 20%
    16:00 +26°C° 0 mm 3 mps 636 mmHg 24%
    17:00 +24°C° 0 mm 3 mps 636 mmHg 28%
    18:00 +21°C° 0 mm 2 mps 635 mmHg 32%
    19:00 +20°C° 0 mm 2 mps 635 mmHg 33%
    20:00 +19°C° 0 mm 1 mps 634 mmHg 33%
    21:00 +16°C° 0 mm 1 mps 634 mmHg 33%
    22:00 +16°C° 0 mm 1 mps 634 mmHg 32%
    23:00 +16°C° 0 mm 1 mps 634 mmHg 30%

    22 August, Thursday

    Time Temperature Precipitation Wind Pressure Humidity
    00:00 +16°C° 0 mm 1 mps 634 mmHg 28%
    01:00 +15°C° 0 mm 1 mps 633 mmHg 28%
    02:00 +15°C° 0 mm 1 mps 633 mmHg 28%
    03:00 +15°C° 0 mm 1 mps 633 mmHg 27%
    04:00 +15°C° 0 mm 1 mps 633 mmHg 27%
    05:00 +16°C° 0 mm 1 mps 634 mmHg 26%
    06:00 +16°C° 0 mm 1 mps 634 mmHg 25%
    07:00 +20°C° 0 mm 1 mps 635 mmHg 22%
    08:00 +23°C° 0 mm 2 mps 636 mmHg 19%
    09:00 +26°C° 0 mm 2 mps 637 mmHg 16%
    10:00 +27°C° 0 mm 3 mps 637 mmHg 16%
    11:00 +28°C° 0 mm 3 mps 637 mmHg 16%
    12:00 +29°C° 0 mm 4 mps 637 mmHg 15%
    13:00 +29°C° 0 mm 4 mps 636 mmHg 16%
    14:00 +29°C° 0 mm 4 mps 636 mmHg 17%
    15:00 +28°C° 0 mm 4 mps 635 mmHg 18%
    16:00 +26°C° 0 mm 3 mps 635 mmHg 22%
    17:00 +24°C° 0 mm 3 mps 634 mmHg 26%
    18:00 +21°C° 0 mm 2 mps 633 mmHg 30%
    19:00 +19°C° 0 mm 2 mps 633 mmHg 31%
    20:00 +18°C° 0 mm 2 mps 633 mmHg 31%
    21:00 +16°C° 0 mm 1 mps 632 mmHg 31%
    22:00 +16°C° 0 mm 1 mps 632 mmHg 31%
    23:00 +16°C° 0 mm 1 mps 632 mmHg 31%

    23 August, Friday

    Time Temperature Precipitation Wind Pressure Humidity
    00:00 +16°C° 0 mm 1 mps 632 mmHg 31%
    01:00 +16°C° 0 mm 1 mps 632 mmHg 34%
    02:00 +16°C° 0 mm 1 mps 632 mmHg 36%
    03:00 +15°C° 0 mm 1 mps 632 mmHg 38%
    04:00 +16°C° 0 mm 1 mps 632 mmHg 38%
    05:00 +16°C° 0 mm 1 mps 633 mmHg 37%
    06:00 +18°C° 0 mm 1 mps 633 mmHg 37%
    07:00 +20°C° 0 mm 2 mps 634 mmHg 33%
    08:00 +22°C° 0 mm 3 mps 635 mmHg 29%
    09:00 +26°C° 0 mm 3 mps 636 mmHg 25%
    10:00 +27°C° 0 mm 4 mps 636 mmHg 24%
    11:00 +28°C° 0 mm 4 mps 636 mmHg 23%
    12:00 +29°C° 0 mm 5 mps 636 mmHg 22%
    13:00 +29°C° 0 mm 5 mps 636 mmHg 23%
    14:00 +29°C° 0 mm 5 mps 635 mmHg 23%
    15:00 +28°C° 0 mm 5 mps 635 mmHg 24%
    16:00 +26°C° 0 mm 4 mps 634 mmHg 29%
    17:00 +24°C° 0 mm 3 mps 633 mmHg 33%
    18:00 +21°C° 0 mm 3 mps 633 mmHg 38%
    19:00 +20°C° 0 mm 2 mps 633 mmHg 39%
    20:00 +19°C° 0 mm 2 mps 632 mmHg 39%
    21:00 +18°C° 0 mm 1 mps 632 mmHg 39%
    22:00 +18°C° 0 mm 1 mps 632 mmHg 39%
    23:00 +18°C° 0 mm 1 mps 632 mmHg 38%

    24 August, Saturday

    Time Temperature Precipitation Wind Pressure Humidity
    00:00 +18°C° 0 mm 1 mps 632 mmHg 37%
    01:00 +18°C° 0 mm 1 mps 632 mmHg 38%
    02:00 +18°C° 0 mm 1 mps 632 mmHg 39%
    03:00 +16°C° 0 mm 1 mps 632 mmHg 41%
    04:00 +18°C° 0 mm 1 mps 632 mmHg 39%
    05:00 +18°C° 0 mm 1 mps 632 mmHg 37%
    06:00 +19°C° 0 mm 1 mps 633 mmHg 35%
    07:00 +21°C° 0 mm 2 mps 634 mmHg 31%
    08:00 +24°C° 0 mm 2 mps 635 mmHg 27%
    09:00 +27°C° 0 mm 3 mps 635 mmHg 23%
    10:00 +28°C° 0 mm 3 mps 635 mmHg 22%
    11:00 +29°C° 0 mm 4 mps 635 mmHg 22%
    12:00 +30°C° 0 mm 4 mps 635 mmHg 21%
    13:00 +30°C° 0 mm 4 mps 635 mmHg 22%
    14:00 +30°C° 0 mm 4 mps 635 mmHg 22%
    15:00 +29°C° 0 mm 4 mps 634 mmHg 23%
    16:00 +27°C° 0 mm 4 mps 634 mmHg 28%
    17:00 +25°C° 0 mm 3 mps 633 mmHg 33%
    18:00 +23°C° 0 mm 2 mps 633 mmHg 38%
    19:00 +22°C° 0 mm 1 mps 633 mmHg 39%
    20:00 +20°C° 0 mm 1 mps 633 mmHg 40%
    21:00 +19°C° 0 mm 1 mps 633 mmHg 41%
    22:00 +19°C° 0 mm 1 mps 633 mmHg 41%
    23:00 +19°C° 0 mm 1 mps 633 mmHg 41%
    Show more